Time,TemperatureF,DewpointF,PressureIn,WindDirection,WindDirectionDegrees,WindSpeedMPH,WindSpeedGustMPH,Humidity,HourlyPrecipIn,Conditions,Clouds,dailyrainin,SoftwareType,DateUTC
2013-01-05 00:00:00,25.8,23.7,30.10,ENE,78,4.0,7.0,92,0.00,,,0.00,WUHU216DAVISVP2,2013-01-05 05:00:00,
2013-01-05 00:01:00,25.9,24.1,30.10,ENE,58,3.0,7.0,93,0.00,,,0.00,WUHU216DAVISVP2,2013-01-05 05:01:00,
2013-01-05 00:06:00,25.9,23.9,30.10,NE,49,1.0,7.0,92,0.00,,,0.00,WUHU216DAVISVP2,2013-01-05 05:06:00,
2013-01-05 00:11:00,25.7,23.7,30.11,NE,40,2.0,7.0,92,0.00,,,0.00,WUHU216DAVISVP2,2013-01-05 05:11:00,
2013-01-05 00:16:00,25.5,23.7,30.10,NE,39,2.0,6.0,93,0.00,,,0.00,WUHU216DAVISVP2,2013-01-05 05:16:00,
2013-01-05 00:21:00,25.3,23.5,30.11,NE,43,0.0,4.0,93,0.00,,,0.00,WUHU216DAVISVP2,2013-01-05 05:21:00,
2013-01-05 00:26:00,25.1,23.3,30.11,NE,34,2.0,4.0,93,0.00,,,0.00,WUHU216DAVISVP2,2013-01-05 05:26:00,
2013-01-05 00:31:00,25.1,23.3,30.11,NE,48,1.0,4.0,93,0.00,,,0.00,WUHU216DAVISVP2,2013-01-05 05:31:00,
2013-01-05 00:36:00,25.1,23.3,30.11,NE,40,2.0,4.0,93,0.00,,,0.00,WUHU216DAVISVP2,2013-01-05 05:36:00,
2013-01-05 00:41:00,25.0,23.5,30.11,NE,36,3.0,4.0,94,0.00,,,0.00,WUHU216DAVISVP2,2013-01-05 05:41:00,
2013-01-05 00:46:00,25.0,23.5,30.11,NNE,32,2.0,4.0,94,0.00,,,0.00,WUHU216DAVISVP2,2013-01-05 05:46:00,
2013-01-05 00:51:00,25.0,23.5,30.11,NNE,33,2.0,4.0,94,0.00,,,0.00,WUHU216DAVISVP2,2013-01-05 05:51:00,
2013-01-05 00:56:00,24.9,23.4,30.11,NE,41,2.0,4.0,94,0.00,,,0.00,WUHU216DAVISVP2,2013-01-05 05:56:00,
2013-01-05 01:01:00,24.8,23.3,30.11,NE,46,3.0,6.0,94,0.00,,,0.00,WUHU216DAVISVP2,2013-01-05 06:01:00,
2013-01-05 01:06:00,24.8,23.3,30.11,NE,46,3.0,6.0,94,0.00,,,0.00,WUHU216DAVISVP2,2013-01-05 06:06:00,
2013-01-05 01:11:00,24.8,23.3,30.11,NE,43,2.0,6.0,94,0.00,,,0.00,WUHU216DAVISVP2,2013-01-05 06:11:00,
2013-01-05 01:16:00,24.8,23.3,30.11,NE,44,3.0,6.0,94,0.00,,,0.00,WUHU216DAVISVP2,2013-01-05 06:16:00,
2013-01-05 01:21:00,24.8,23.3,30.11,NE,45,2.0,5.0,94,0.00,,,0.00,WUHU216DAVISVP2,2013-01-05 06:21:00,
2013-01-05 01:26:00,24.7,23.2,30.11,ENE,64,2.0,5.0,94,0.00,,,0.00,WUHU216DAVISVP2,2013-01-05 06:26:00,
2013-01-05 01:31:00,24.6,23.1,30.11,ENE,62,0.0,5.0,94,0.00,,,0.00,WUHU216DAVISVP2,2013-01-05 06:31:00,
2013-01-05 01:36:00,24.5,23.2,30.11,ENE,68,1.0,5.0,95,0.00,,,0.00,WUHU216DAVISVP2,2013-01-05 06:36:00,
2013-01-05 01:41:00,24.3,22.8,30.11,NE,51,1.0,4.0,94,0.00,,,0.00,WUHU216DAVISVP2,2013-01-05 06:41:00,
2013-01-05 01:46:00,24.2,22.7,30.12,NE,51,1.0,4.0,94,0.00,,,0.00,WUHU216DAVISVP2,2013-01-05 06:46:00,
2013-01-05 01:51:00,24.2,22.9,30.12,ENE,60,0.0,4.0,95,0.00,,,0.00,WUHU216DAVISVP2,2013-01-05 06:51:00,
2013-01-05 01:56:00,24.2,22.9,30.12,ENE,71,2.0,2.0,95,0.00,,,0.00,WUHU216DAVISVP2,2013-01-05 06:56:00,
2013-01-05 02:01:00,24.3,23.1,30.12,East,79,1.0,3.0,95,0.00,,,0.00,WUHU216DAVISVP2,2013-01-05 07:01:00,
2013-01-05 02:06:00,24.6,23.6,30.13,East,87,2.0,5.0,96,0.00,,,0.00,WUHU216DAVISVP2,2013-01-05 07:06:00,
2013-01-05 02:11:00,24.7,23.4,30.13,ENE,68,2.0,5.0,95,0.00,,,0.00,WUHU216DAVISVP2,2013-01-05 07:11:00,
2013-01-05 02:16:00,24.7,23.4,30.13,ENE,77,2.0,4.0,95,0.00,,,0.00,WUHU216DAVISVP2,2013-01-05 07:16:00,
2013-01-05 02:21:00,24.6,23.3,30.13,ENE,66,3.0,4.0,95,0.00,,,0.00,WUHU216DAVISVP2,2013-01-05 07:21:00,
2013-01-05 02:27:00,24.5,23.2,30.14,ENE,60,2.0,4.0,95,0.00,,,0.00,WUHU216DAVISVP2,2013-01-05 07:27:00,
2013-01-05 02:32:00,24.6,23.3,30.14,NE,46,1.0,3.0,95,0.00,,,0.00,WUHU216DAVISVP2,2013-01-05 07:32:00,
2013-01-05 02:36:00,24.5,23.2,30.14,ENE,64,1.0,3.0,95,0.00,,,0.00,WUHU216DAVISVP2,2013-01-05 07:36:00,
2013-01-05 02:41:00,24.4,23.2,30.14,NE,49,1.0,3.0,95,0.00,,,0.00,WUHU216DAVISVP2,2013-01-05 07:41:00,
2013-01-05 02:46:00,24.3,23.0,30.15,NE,49,0.0,3.0,95,0.00,,,0.00,WUHU216DAVISVP2,2013-01-05 07:46:00,
2013-01-05 02:51:00,24.1,22.8,30.15,NE,49,0.0,3.0,95,0.00,,,0.00,WUHU216DAVISVP2,2013-01-05 07:51:00,
2013-01-05 02:56:00,24.1,22.8,30.15,NE,39,0.0,2.0,95,0.00,,,0.00,WUHU216DAVISVP2,2013-01-05 07:56:00,
2013-01-05 03:01:00,24.1,23.1,30.15,NE,37,1.0,2.0,96,0.00,,,0.00,WUHU216DAVISVP2,2013-01-05 08:01:00,
2013-01-05 03:06:00,24.0,22.7,30.15,NE,37,0.0,2.0,95,0.00,,,0.00,WUHU216DAVISVP2,2013-01-05 08:06:00,
2013-01-05 03:11:00,23.8,22.5,30.15,NE,37,0.0,2.0,95,0.00,,,0.00,WUHU216DAVISVP2,2013-01-05 08:11:00,
2013-01-05 03:16:00,23.8,22.8,30.16,NE,37,0.0,2.0,96,0.00,,,0.00,WUHU216DAVISVP2,2013-01-05 08:16:00,
2013-01-05 03:21:00,23.6,22.6,30.15,NE,37,0.0,2.0,96,0.00,,,0.00,WUHU216DAVISVP2,2013-01-05 08:21:00,
2013-01-05 03:26:00,23.5,22.5,30.15,NE,37,0.0,1.0,96,0.00,,,0.00,WUHU216DAVISVP2,2013-01-05 08:26:00,
2013-01-05 03:31:00,23.5,22.5,30.15,NE,37,0.0,1.0,96,0.00,,,0.00,WUHU216DAVISVP2,2013-01-05 08:31:00,
2013-01-05 03:36:00,23.6,22.6,30.15,NE,37,1.0,2.0,96,0.00,,,0.00,WUHU216DAVISVP2,2013-01-05 08:36:00,
2013-01-05 03:41:00,23.6,22.6,30.15,NE,37,0.0,2.0,96,0.00,,,0.00,WUHU216DAVISVP2,2013-01-05 08:41:00,
2013-01-05 03:46:00,23.7,22.7,30.15,NE,37,0.0,2.0,96,0.00,,,0.00,WUHU216DAVISVP2,2013-01-05 08:46:00,
2013-01-05 03:51:00,23.8,22.8,30.14,NE,37,0.0,2.0,96,0.00,,,0.00,WUHU216DAVISVP2,2013-01-05 08:51:00,
2013-01-05 03:56:00,23.6,22.6,30.14,NE,37,0.0,0.0,96,0.00,,,0.00,WUHU216DAVISVP2,2013-01-05 08:56:00,
2013-01-05 04:01:00,23.5,22.5,30.15,NE,37,0.0,0.0,96,0.00,,,0.00,WUHU216DAVISVP2,2013-01-05 09:01:00,
2013-01-05 04:06:00,23.7,22.9,30.14,NE,37,0.0,0.0,97,0.00,,,0.00,WUHU216DAVISVP2,2013-01-05 09:06:00,
2013-01-05 04:11:00,23.8,23.0,30.15,NE,37,0.0,0.0,97,0.00,,,0.00,WUHU216DAVISVP2,2013-01-05 09:11:00,
2013-01-05 04:16:00,23.9,23.2,30.15,NE,37,0.0,0.0,97,0.00,,,0.00,WUHU216DAVISVP2,2013-01-05 09:16:00,
2013-01-05 04:21:00,23.9,23.2,30.15,NE,37,0.0,0.0,97,0.00,,,0.00,WUHU216DAVISVP2,2013-01-05 09:21:00,
2013-01-05 04:26:00,24.0,23.3,30.15,NE,37,0.0,0.0,97,0.00,,,0.00,WUHU216DAVISVP2,2013-01-05 09:26:00,
2013-01-05 04:31:00,23.9,23.1,30.15,NE,36,1.0,1.0,97,0.00,,,0.00,WUHU216DAVISVP2,2013-01-05 09:31:00,
2013-01-05 04:36:00,24.0,23.2,30.15,North,11,0.0,2.0,97,0.00,,,0.00,WUHU216DAVISVP2,2013-01-05 09:36:00,
2013-01-05 04:41:00,24.0,23.2,30.15,NNE,27,1.0,2.0,97,0.00,,,0.00,WUHU216DAVISVP2,2013-01-05 09:41:00,
2013-01-05 04:46:00,23.9,22.9,30.15,NNE,26,1.0,2.0,96,0.00,,,0.00,WUHU216DAVISVP2,2013-01-05 09:46:00,
2013-01-05 04:51:00,24.1,23.3,30.14,NNE,20,1.0,2.0,97,0.00,,,0.00,WUHU216DAVISVP2,2013-01-05 09:51:00,
2013-01-05 04:56:00,24.1,23.3,30.14,NNE,20,0.0,2.0,97,0.00,,,0.00,WUHU216DAVISVP2,2013-01-05 09:56:00,
2013-01-05 05:01:00,24.1,23.3,30.14,NNE,20,0.0,2.0,97,0.00,,,0.00,WUHU216DAVISVP2,2013-01-05 10:01:00,
2013-01-05 05:06:00,24.2,23.4,30.14,NNE,20,0.0,1.0,97,0.00,,,0.00,WUHU216DAVISVP2,2013-01-05 10:06:00,
2013-01-05 05:11:00,24.2,23.4,30.14,NNE,20,0.0,1.0,97,0.00,,,0.00,WUHU216DAVISVP2,2013-01-05 10:11:00,
2013-01-05 05:16:00,24.0,23.2,30.14,North,349,0.0,1.0,97,0.00,,,0.00,WUHU216DAVISVP2,2013-01-05 10:16:00,
2013-01-05 05:21:00,23.9,22.9,30.14,North,351,0.0,1.0,96,0.00,,,0.00,WUHU216DAVISVP2,2013-01-05 10:21:00,
2013-01-05 05:26:00,23.8,22.8,30.14,North,11,0.0,0.0,96,0.00,,,0.00,WUHU216DAVISVP2,2013-01-05 10:26:00,
2013-01-05 05:31:00,23.7,22.7,30.14,NW,326,0.0,0.0,96,0.00,,,0.00,WUHU216DAVISVP2,2013-01-05 10:31:00,
2013-01-05 05:36:00,23.8,23.0,30.14,NNW,330,0.0,0.0,97,0.00,,,0.00,WUHU216DAVISVP2,2013-01-05 10:36:00,
2013-01-05 05:41:00,23.9,23.1,30.14,NNW,330,0.0,0.0,97,0.00,,,0.00,WUHU216DAVISVP2,2013-01-05 10:41:00,
2013-01-05 05:47:00,24.0,23.3,30.14,NNW,335,0.0,0.0,97,0.00,,,0.00,WUHU216DAVISVP2,2013-01-05 10:47:00,
2013-01-05 05:52:00,23.7,22.7,30.14,NNW,331,0.0,0.0,96,0.00,,,0.00,WUHU216DAVISVP2,2013-01-05 10:52:00,
2013-01-05 05:57:00,23.4,22.4,30.13,WNW,282,1.0,1.0,96,0.00,,,0.00,WUHU216DAVISVP2,2013-01-05 10:57:00,
2013-01-05 06:02:00,22.3,21.1,30.13,WNW,283,1.0,2.0,95,0.00,,,0.00,WUHU216DAVISVP2,2013-01-05 11:02:00,
2013-01-05 06:07:00,20.9,19.4,30.13,WNW,297,1.0,2.0,94,0.00,,,0.00,WUHU216DAVISVP2,2013-01-05 11:07:00,
2013-01-05 06:12:00,21.2,20.2,30.12,WSW,252,1.0,2.0,96,0.00,,,0.00,WUHU216DAVISVP2,2013-01-05 11:12:00,
2013-01-05 06:17:00,19.4,17.7,30.12,WSW,252,1.0,2.0,93,0.00,,,0.00,WUHU216DAVISVP2,2013-01-05 11:17:00,
2013-01-05 06:22:00,18.9,17.4,30.12,West,271,0.0,2.0,94,0.00,,,0.00,WUHU216DAVISVP2,2013-01-05 11:22:00,
2013-01-05 06:27:00,19.7,18.7,30.13,NNE,27,2.0,3.0,96,0.00,,,0.00,WUHU216DAVISVP2,2013-01-05 11:27:00,
2013-01-05 06:32:00,20.9,20.2,30.14,North,6,3.0,3.0,97,0.00,,,0.00,WUHU216DAVISVP2,2013-01-05 11:32:00,
2013-01-05 06:37:00,21.1,20.4,30.14,NNW,338,2.0,3.0,97,0.00,,,0.00,WUHU216DAVISVP2,2013-01-05 11:37:00,
2013-01-05 06:42:00,21.3,20.6,30.15,NNE,13,0.0,3.0,97,0.00,,,0.00,WUHU216DAVISVP2,2013-01-05 11:42:00,
2013-01-05 06:47:00,21.4,20.6,30.15,NNE,26,1.0,2.0,97,0.00,,,0.00,WUHU216DAVISVP2,2013-01-05 11:47:00,
2013-01-05 06:52:00,21.9,21.1,30.14,NE,39,0.0,2.0,97,0.00,,,0.00,WUHU216DAVISVP2,2013-01-05 11:52:00,
2013-01-05 06:57:00,22.3,21.5,30.14,NNE,13,0.0,2.0,97,0.00,,,0.00,WUHU216DAVISVP2,2013-01-05 11:57:00,
2013-01-05 07:02:00,22.4,21.6,30.14,NNE,27,0.0,2.0,97,0.00,,,0.00,WUHU216DAVISVP2,2013-01-05 12:02:00,
2013-01-05 07:07:00,22.0,21.0,30.14,NNE,27,0.0,2.0,96,0.00,,,0.00,WUHU216DAVISVP2,2013-01-05 12:07:00,
2013-01-05 07:12:00,22.0,21.0,30.14,North,360,1.0,2.0,96,0.00,,,0.00,WUHU216DAVISVP2,2013-01-05 12:12:00,
2013-01-05 07:17:00,22.4,21.6,30.15,North,356,1.0,2.0,97,0.00,,,0.00,WUHU216DAVISVP2,2013-01-05 12:17:00,
2013-01-05 07:22:00,22.4,21.6,30.15,NNW,327,2.0,2.0,97,0.00,,,0.00,WUHU216DAVISVP2,2013-01-05 12:22:00,
2013-01-05 07:27:00,22.1,21.1,30.14,WNW,295,1.0,3.0,96,0.00,,,0.00,WUHU216DAVISVP2,2013-01-05 12:27:00,
2013-01-05 07:32:00,22.0,21.0,30.14,WNW,288,2.0,3.0,96,0.00,,,0.00,WUHU216DAVISVP2,2013-01-05 12:32:00,
2013-01-05 07:37:00,22.2,21.2,30.13,WNW,294,0.0,3.0,96,0.00,,,0.00,WUHU216DAVISVP2,2013-01-05 12:37:00,
2013-01-05 07:42:00,22.4,21.7,30.13,WNW,294,0.0,2.0,97,0.00,,,0.00,WUHU216DAVISVP2,2013-01-05 12:42:00,
2013-01-05 07:47:00,22.5,21.8,30.13,WNW,293,0.0,2.0,97,0.00,,,0.00,WUHU216DAVISVP2,2013-01-05 12:47:00,
2013-01-05 07:52:00,22.2,21.2,30.13,WNW,293,1.0,2.0,96,0.00,,,0.00,WUHU216DAVISVP2,2013-01-05 12:52:00,
2013-01-05 07:57:00,21.5,20.3,30.12,WNW,291,1.0,2.0,95,0.00,,,0.00,WUHU216DAVISVP2,2013-01-05 12:57:00,
2013-01-05 08:02:00,21.2,20.0,30.12,West,277,1.0,2.0,95,0.00,,,0.00,WUHU216DAVISVP2,2013-01-05 13:02:00,
2013-01-05 08:07:00,20.7,19.5,30.12,West,276,1.0,3.0,95,0.00,,,0.00,WUHU216DAVISVP2,2013-01-05 13:07:00,
2013-01-05 08:12:00,20.5,19.3,30.13,NW,309,1.0,3.0,95,0.00,,,0.00,WUHU216DAVISVP2,2013-01-05 13:12:00,
2013-01-05 08:17:00,20.6,19.6,30.13,North,359,0.0,3.0,96,0.00,,,0.00,WUHU216DAVISVP2,2013-01-05 13:17:00,
2013-01-05 08:22:00,20.6,19.6,30.14,NNW,339,0.0,3.0,96,0.00,,,0.00,WUHU216DAVISVP2,2013-01-05 13:22:00,
2013-01-05 08:27:00,20.3,19.3,30.15,NNW,337,1.0,3.0,96,0.00,,,0.00,WUHU216DAVISVP2,2013-01-05 13:27:00,
2013-01-05 08:32:00,20.2,19.2,30.15,North,4,0.0,2.0,96,0.00,,,0.00,WUHU216DAVISVP2,2013-01-05 13:32:00,
2013-01-05 08:37:00,20.2,19.2,30.15,North,4,1.0,2.0,96,0.00,,,0.00,WUHU216DAVISVP2,2013-01-05 13:37:00,
2013-01-05 08:42:00,20.1,19.1,30.15,NW,321,1.0,2.0,96,0.00,,,0.00,WUHU216DAVISVP2,2013-01-05 13:42:00,
2013-01-05 08:47:00,20.1,19.1,30.15,NNW,328,1.0,3.0,96,0.00,,,0.00,WUHU216DAVISVP2,2013-01-05 13:47:00,
2013-01-05 08:52:00,20.2,19.2,30.16,NW,321,1.0,3.0,96,0.00,,,0.00,WUHU216DAVISVP2,2013-01-05 13:52:00,
2013-01-05 08:57:00,20.5,19.5,30.16,NE,42,2.0,4.0,96,0.00,,,0.00,WUHU216DAVISVP2,2013-01-05 13:57:00,
2013-01-05 09:02:00,21.0,20.0,30.15,NW,316,2.0,4.0,96,0.00,,,0.00,WUHU216DAVISVP2,2013-01-05 14:02:00,
2013-01-05 09:07:00,21.3,20.3,30.16,NNW,337,1.0,4.0,96,0.00,,,0.00,WUHU216DAVISVP2,2013-01-05 14:07:00,
2013-01-05 09:12:00,21.7,20.7,30.16,NNW,335,1.0,4.0,96,0.00,,,0.00,WUHU216DAVISVP2,2013-01-05 14:12:00,
2013-01-05 09:17:00,22.0,21.0,30.15,NNW,330,1.0,3.0,96,0.00,,,0.00,WUHU216DAVISVP2,2013-01-05 14:17:00,
2013-01-05 09:22:00,22.4,21.4,30.15,NNW,330,2.0,4.0,96,0.00,,,0.00,WUHU216DAVISVP2,2013-01-05 14:22:00,
2013-01-05 09:27:00,22.8,21.8,30.15,North,351,2.0,5.0,96,0.00,,,0.00,WUHU216DAVISVP2,2013-01-05 14:27:00,
2013-01-05 09:32:00,23.0,22.0,30.15,NNW,331,1.0,5.0,96,0.00,,,0.00,WUHU216DAVISVP2,2013-01-05 14:32:00,
2013-01-05 09:37:00,23.3,22.3,30.15,NW,316,3.0,5.0,96,0.00,,,0.00,WUHU216DAVISVP2,2013-01-05 14:37:00,
2013-01-05 09:42:00,23.9,22.9,30.14,WNW,300,0.0,5.0,96,0.00,,,0.00,WUHU216DAVISVP2,2013-01-05 14:42:00,
2013-01-05 09:47:00,24.1,23.1,30.14,WNW,298,1.0,4.0,96,0.00,,,0.00,WUHU216DAVISVP2,2013-01-05 14:47:00,
2013-01-05 09:52:00,24.3,23.3,30.14,NW,309,1.0,4.0,96,0.00,,,0.00,WUHU216DAVISVP2,2013-01-05 14:52:00,
2013-01-05 09:57:00,24.7,23.7,30.14,NW,326,3.0,3.0,96,0.00,,,0.00,WUHU216DAVISVP2,2013-01-05 14:57:00,
2013-01-05 10:02:00,24.8,23.6,30.14,NNW,327,2.0,3.0,95,0.00,,,0.00,WUHU216DAVISVP2,2013-01-05 15:02:00,
2013-01-05 10:07:00,25.2,24.0,30.13,WNW,282,1.0,3.0,95,0.00,,,0.00,WUHU216DAVISVP2,2013-01-05 15:07:00,
2013-01-05 10:12:00,25.7,24.4,30.13,NNW,331,2.0,4.0,95,0.00,,,0.00,WUHU216DAVISVP2,2013-01-05 15:12:00,
2013-01-05 10:17:00,26.0,24.7,30.14,West,278,1.0,4.0,95,0.00,,,0.00,WUHU216DAVISVP2,2013-01-05 15:17:00,
2013-01-05 10:22:00,26.0,24.5,30.14,NNE,22,1.0,4.0,94,0.00,,,0.00,WUHU216DAVISVP2,2013-01-05 15:22:00,
2013-01-05 10:27:00,25.7,23.9,30.14,NNW,346,1.0,4.0,93,0.00,,,0.00,WUHU216DAVISVP2,2013-01-05 15:27:00,
2013-01-05 10:32:00,25.8,24.3,30.14,NNW,336,2.0,4.0,94,0.00,,,0.00,WUHU216DAVISVP2,2013-01-05 15:32:00,
2013-01-05 10:37:00,26.1,24.6,30.14,NNE,18,3.0,4.0,94,0.00,,,0.00,WUHU216DAVISVP2,2013-01-05 15:37:00,
2013-01-05 10:42:00,26.4,24.6,30.14,NW,305,3.0,6.0,93,0.00,,,0.00,WUHU216DAVISVP2,2013-01-05 15:42:00,
2013-01-05 10:47:00,26.6,24.8,30.14,NNW,334,4.0,7.0,93,0.00,,,0.00,WUHU216DAVISVP2,2013-01-05 15:47:00,
2013-01-05 10:52:00,26.9,25.1,30.14,NNW,337,3.0,8.0,93,0.00,,,0.00,WUHU216DAVISVP2,2013-01-05 15:52:00,
2013-01-05 10:57:00,27.2,25.2,30.14,North,356,3.0,8.0,92,0.00,,,0.00,WUHU216DAVISVP2,2013-01-05 15:57:00,
2013-01-05 11:02:00,27.6,25.6,30.14,NW,316,4.0,8.0,92,0.00,,,0.00,WUHU216DAVISVP2,2013-01-05 16:02:00,
2013-01-05 11:07:00,27.9,25.6,30.14,NNW,345,2.0,7.0,91,0.00,,,0.00,WUHU216DAVISVP2,2013-01-05 16:07:00,
2013-01-05 11:12:00,28.2,25.9,30.14,NNW,333,2.0,7.0,91,0.00,,,0.00,WUHU216DAVISVP2,2013-01-05 16:12:00,
2013-01-05 11:17:00,28.7,26.4,30.13,NW,305,6.0,7.0,91,0.00,,,0.00,WUHU216DAVISVP2,2013-01-05 16:17:00,
2013-01-05 11:22:00,29.2,26.9,30.12,North,350,3.0,7.0,91,0.00,,,0.00,WUHU216DAVISVP2,2013-01-05 16:22:00,
2013-01-05 11:27:00,29.8,27.2,30.12,NW,313,3.0,7.0,90,0.00,,,0.00,WUHU216DAVISVP2,2013-01-05 16:27:00,
2013-01-05 11:32:00,30.2,27.3,30.12,NNE,26,5.0,7.0,89,0.00,,,0.00,WUHU216DAVISVP2,2013-01-05 16:32:00,
2013-01-05 11:37:00,30.3,27.1,30.11,NW,311,4.0,7.0,88,0.00,,,0.00,WUHU216DAVISVP2,2013-01-05 16:37:00,
2013-01-05 11:42:00,30.4,27.3,30.11,NW,321,2.0,7.0,88,0.00,,,0.00,WUHU216DAVISVP2,2013-01-05 16:42:00,
2013-01-05 11:47:00,30.7,27.3,30.10,NNW,334,2.0,7.0,87,0.00,,,0.00,WUHU216DAVISVP2,2013-01-05 16:47:00,
2013-01-05 11:52:00,30.9,27.5,30.10,NNW,333,2.0,7.0,87,0.00,,,0.00,WUHU216DAVISVP2,2013-01-05 16:52:00,
2013-01-05 11:57:00,31.3,27.8,30.09,NNW,335,6.0,7.0,87,0.00,,,0.00,WUHU216DAVISVP2,2013-01-05 16:57:00,
2013-01-05 12:02:00,31.8,28.1,30.09,NNE,24,4.0,9.0,86,0.00,,,0.00,WUHU216DAVISVP2,2013-01-05 17:02:00,
2013-01-05 12:07:00,32.2,28.2,30.08,NNE,30,2.0,9.0,85,0.00,,,0.00,WUHU216DAVISVP2,2013-01-05 17:07:00,
2013-01-05 12:12:00,32.5,28.2,30.08,NNE,15,6.0,11.0,84,0.00,,,0.00,WUHU216DAVISVP2,2013-01-05 17:12:00,
2013-01-05 12:17:00,32.6,28.0,30.08,NNW,329,4.0,11.0,83,0.00,,,0.00,WUHU216DAVISVP2,2013-01-05 17:17:00,
2013-01-05 12:22:00,32.8,28.2,30.08,NNE,19,7.0,10.0,83,0.00,,,0.00,WUHU216DAVISVP2,2013-01-05 17:22:00,
2013-01-05 12:27:00,33.0,28.4,30.08,NNE,25,5.0,10.0,83,0.00,,,0.00,WUHU216DAVISVP2,2013-01-05 17:27:00,
2013-01-05 12:32:00,33.0,28.1,30.08,North,351,6.0,13.0,82,0.00,,,0.00,WUHU216DAVISVP2,2013-01-05 17:32:00,
2013-01-05 12:37:00,32.7,28.1,30.08,NNE,25,2.0,13.0,83,0.00,,,0.00,WUHU216DAVISVP2,2013-01-05 17:37:00,
2013-01-05 12:42:00,32.8,28.5,30.07,ENE,72,5.0,12.0,84,0.00,,,0.00,WUHU216DAVISVP2,2013-01-05 17:42:00,
2013-01-05 12:47:00,33.2,28.6,30.07,NE,36,8.0,12.0,83,0.00,,,0.00,WUHU216DAVISVP2,2013-01-05 17:47:00,
2013-01-05 12:52:00,33.4,28.5,30.07,NE,49,3.0,12.0,82,0.00,,,0.00,WUHU216DAVISVP2,2013-01-05 17:52:00,
2013-01-05 12:57:00,33.6,28.4,30.06,ENE,68,6.0,11.0,81,0.00,,,0.00,WUHU216DAVISVP2,2013-01-05 17:57:00,
2013-01-05 13:02:00,33.6,28.1,30.06,NE,47,3.0,11.0,80,0.00,,,0.00,WUHU216DAVISVP2,2013-01-05 18:02:00,
2013-01-05 13:07:00,34.0,28.5,30.06,NNE,12,8.0,11.0,80,0.00,,,0.00,WUHU216DAVISVP2,2013-01-05 18:07:00,
2013-01-05 13:12:00,34.3,28.8,30.06,NE,51,5.0,11.0,80,0.00,,,0.00,WUHU216DAVISVP2,2013-01-05 18:12:00,
2013-01-05 13:17:00,34.6,28.8,30.05,NNE,19,8.0,11.0,79,0.00,,,0.00,WUHU216DAVISVP2,2013-01-05 18:17:00,
2013-01-05 13:22:00,34.7,28.2,30.05,NE,41,5.0,15.0,77,0.00,,,0.00,WUHU216DAVISVP2,2013-01-05 18:22:00,
2013-01-05 13:27:00,34.7,27.9,30.05,NE,48,6.0,15.0,76,0.00,,,0.00,WUHU216DAVISVP2,2013-01-05 18:27:00,
2013-01-05 13:32:00,34.8,27.7,30.04,NNE,29,4.0,14.0,75,0.00,,,0.00,WUHU216DAVISVP2,2013-01-05 18:32:00,
2013-01-05 13:37:00,35.1,27.6,30.04,NE,44,11.0,14.0,74,0.00,,,0.00,WUHU216DAVISVP2,2013-01-05 18:37:00,
2013-01-05 13:42:00,34.7,27.3,30.03,NE,34,7.0,14.0,74,0.00,,,0.00,WUHU216DAVISVP2,2013-01-05 18:42:00,
2013-01-05 13:47:00,34.5,27.1,30.03,NE,34,12.0,14.0,74,0.00,,,0.00,WUHU216DAVISVP2,2013-01-05 18:47:00,
2013-01-05 13:52:00,34.7,27.3,30.03,NE,50,5.0,14.0,74,0.00,,,0.00,WUHU216DAVISVP2,2013-01-05 18:52:00,
2013-01-05 13:57:00,34.8,27.4,30.02,NE,53,2.0,13.0,74,0.00,,,0.00,WUHU216DAVISVP2,2013-01-05 18:57:00,
2013-01-05 14:02:00,34.5,27.1,30.02,NNE,21,4.0,12.0,74,0.00,,,0.00,WUHU216DAVISVP2,2013-01-05 19:02:00,
2013-01-05 14:07:00,34.0,26.6,30.02,NE,53,7.0,12.0,74,0.00,,,0.00,WUHU216DAVISVP2,2013-01-05 19:07:00,
2013-01-05 14:12:00,33.7,26.6,30.02,NNE,15,2.0,13.0,75,0.00,,,0.00,WUHU216DAVISVP2,2013-01-05 19:12:00,
2013-01-05 14:17:00,33.5,26.4,30.02,NE,34,7.0,13.0,75,0.00,,,0.00,WUHU216DAVISVP2,2013-01-05 19:17:00,
2013-01-05 14:22:00,33.4,26.3,30.02,NE,41,8.0,12.0,75,0.00,,,0.00,WUHU216DAVISVP2,2013-01-05 19:22:00,
2013-01-05 14:27:00,33.3,26.2,30.02,NNE,16,9.0,15.0,75,0.00,,,0.00,WUHU216DAVISVP2,2013-01-05 19:27:00,
2013-01-05 14:32:00,33.8,26.7,30.01,ENE,58,9.0,15.0,75,0.00,,,0.00,WUHU216DAVISVP2,2013-01-05 19:32:00,
2013-01-05 14:37:00,33.8,26.7,30.02,NE,56,4.0,14.0,75,0.00,,,0.00,WUHU216DAVISVP2,2013-01-05 19:37:00,
2013-01-05 14:42:00,33.8,26.4,30.01,NNE,32,6.0,14.0,74,0.00,,,0.00,WUHU216DAVISVP2,2013-01-05 19:42:00,
2013-01-05 14:47:00,33.7,26.3,30.01,NE,40,5.0,13.0,74,0.00,,,0.00,WUHU216DAVISVP2,2013-01-05 19:47:00,
2013-01-05 14:52:00,33.9,26.5,30.01,NNE,16,6.0,13.0,74,0.00,,,0.00,WUHU216DAVISVP2,2013-01-05 19:52:00,
2013-01-05 14:57:00,34.3,26.6,30.01,ENE,62,7.0,11.0,73,0.00,,,0.00,WUHU216DAVISVP2,2013-01-05 19:57:00,
2013-01-05 15:02:00,34.9,26.8,30.00,NE,37,5.0,12.0,72,0.00,,,0.00,WUHU216DAVISVP2,2013-01-05 20:02:00,
2013-01-05 15:07:00,35.2,26.8,30.00,ENE,60,10.0,13.0,71,0.00,,,0.00,WUHU216DAVISVP2,2013-01-05 20:07:00,
2013-01-05 15:12:00,35.3,26.2,30.00,NE,44,8.0,13.0,69,0.00,,,0.00,WUHU216DAVISVP2,2013-01-05 20:12:00,
2013-01-05 15:17:00,35.2,26.1,29.99,NE,46,6.0,12.0,69,0.00,,,0.00,WUHU216DAVISVP2,2013-01-05 20:17:00,
2013-01-05 15:22:00,35.1,25.9,29.98,NNE,23,3.0,11.0,69,0.00,,,0.00,WUHU216DAVISVP2,2013-01-05 20:22:00,
2013-01-05 15:27:00,35.3,26.1,29.98,NNE,31,5.0,10.0,69,0.00,,,0.00,WUHU216DAVISVP2,2013-01-05 20:27:00,
2013-01-05 15:32:00,35.7,26.2,29.98,North,352,4.0,10.0,68,0.00,,,0.00,WUHU216DAVISVP2,2013-01-05 20:32:00,
2013-01-05 15:37:00,35.6,26.1,29.98,NNE,15,2.0,9.0,68,0.00,,,0.00,WUHU216DAVISVP2,2013-01-05 20:37:00,
2013-01-05 15:42:00,35.4,25.9,29.98,NE,55,5.0,9.0,68,0.00,,,0.00,WUHU216DAVISVP2,2013-01-05 20:42:00,
2013-01-05 15:47:00,34.5,25.4,29.98,NE,34,5.0,10.0,69,0.00,,,0.00,WUHU216DAVISVP2,2013-01-05 20:47:00,
2013-01-05 15:52:00,33.9,25.1,29.99,North,11,5.0,11.0,70,0.00,,,0.00,WUHU216DAVISVP2,2013-01-05 20:52:00,
2013-01-05 15:57:00,33.5,25.2,29.99,NE,36,2.0,11.0,71,0.00,,,0.00,WUHU216DAVISVP2,2013-01-05 20:57:00,
2013-01-05 16:02:00,33.3,25.3,29.99,NNW,340,2.0,10.0,72,0.00,,,0.00,WUHU216DAVISVP2,2013-01-05 21:02:00,
2013-01-05 16:07:00,33.1,25.1,29.99,NE,49,4.0,9.0,72,0.00,,,0.00,WUHU216DAVISVP2,2013-01-05 21:07:00,
2013-01-05 16:12:00,32.9,24.9,29.99,NE,46,5.0,9.0,72,0.00,,,0.00,WUHU216DAVISVP2,2013-01-05 21:12:00,
2013-01-05 16:17:00,32.8,25.1,29.99,ENE,60,1.0,9.0,73,0.00,,,0.00,WUHU216DAVISVP2,2013-01-05 21:17:00,
2013-01-05 16:22:00,32.7,25.1,29.98,NNE,13,3.0,8.0,73,0.00,,,0.00,WUHU216DAVISVP2,2013-01-05 21:22:00,
2013-01-05 16:27:00,32.7,25.4,29.99,NNE,30,8.0,9.0,74,0.00,,,0.00,WUHU216DAVISVP2,2013-01-05 21:27:00,
2013-01-05 16:32:00,32.7,25.3,29.99,ENE,59,3.0,9.0,74,0.00,,,0.00,WUHU216DAVISVP2,2013-01-05 21:32:00,
2013-01-05 16:37:00,32.7,25.3,29.99,NNE,17,2.0,8.0,74,0.00,,,0.00,WUHU216DAVISVP2,2013-01-05 21:37:00,
2013-01-05 16:42:00,32.7,25.3,29.98,NE,49,2.0,8.0,74,0.00,,,0.00,WUHU216DAVISVP2,2013-01-05 21:42:00,
2013-01-05 16:47:00,32.5,25.1,29.98,North,5,4.0,8.0,74,0.00,,,0.00,WUHU216DAVISVP2,2013-01-05 21:47:00,
2013-01-05 16:52:00,32.5,25.2,29.98,NNE,27,3.0,8.0,74,0.00,,,0.00,WUHU216DAVISVP2,2013-01-05 21:52:00,
2013-01-05 16:57:00,32.5,25.2,29.98,NE,44,3.0,8.0,74,0.00,,,0.00,WUHU216DAVISVP2,2013-01-05 21:57:00,
2013-01-05 17:02:00,32.5,25.2,29.98,North,353,5.0,8.0,74,0.00,,,0.00,WUHU216DAVISVP2,2013-01-05 22:02:00,
2013-01-05 17:07:00,32.5,25.5,29.97,North,8,6.0,7.0,75,0.00,,,0.00,WUHU216DAVISVP2,2013-01-05 22:07:00,
2013-01-05 17:12:00,32.5,25.5,29.97,NNE,20,5.0,8.0,75,0.00,,,0.00,WUHU216DAVISVP2,2013-01-05 22:12:00,
2013-01-05 17:17:00,32.4,25.4,29.97,NNE,33,2.0,8.0,75,0.00,,,0.00,WUHU216DAVISVP2,2013-01-05 22:17:00,
2013-01-05 17:22:00,32.5,25.5,29.97,NNE,19,6.0,7.0,75,0.00,,,0.00,WUHU216DAVISVP2,2013-01-05 22:22:00,
2013-01-05 17:27:00,32.5,25.5,29.97,NNW,338,3.0,9.0,75,0.00,,,0.00,WUHU216DAVISVP2,2013-01-05 22:27:00,
2013-01-05 17:32:00,32.5,25.5,29.97,North,11,5.0,9.0,75,0.00,,,0.00,WUHU216DAVISVP2,2013-01-05 22:32:00,
2013-01-05 17:37:00,32.4,25.7,29.97,NE,51,6.0,8.0,76,0.00,,,0.00,WUHU216DAVISVP2,2013-01-05 22:37:00,
2013-01-05 17:42:00,32.4,25.7,29.97,NE,52,6.0,8.0,76,0.00,,,0.00,WUHU216DAVISVP2,2013-01-05 22:42:00,
2013-01-05 17:47:00,32.5,25.8,29.96,NNE,25,4.0,8.0,76,0.00,,,0.00,WUHU216DAVISVP2,2013-01-05 22:47:00,
2013-01-05 17:52:00,32.5,25.8,29.97,NNE,25,7.0,7.0,76,0.00,,,0.00,WUHU216DAVISVP2,2013-01-05 22:52:00,
2013-01-05 17:57:00,32.6,25.9,29.96,ENE,58,8.0,8.0,76,0.00,,,0.00,WUHU216DAVISVP2,2013-01-05 22:57:00,
2013-01-05 18:02:00,32.7,26.0,29.96,North,6,7.0,8.0,76,0.00,,,0.00,WUHU216DAVISVP2,2013-01-05 23:02:00,
2013-01-05 18:07:00,32.9,26.2,29.96,NE,48,8.0,10.0,76,0.00,,,0.00,WUHU216DAVISVP2,2013-01-05 23:07:00,
2013-01-05 18:13:00,32.7,27.2,29.96,NNE,33,11.0,12.0,80,0.00,,,0.00,WUHU216DAVISVP2,2013-01-05 23:13:00,
2013-01-05 18:18:00,32.2,27.6,29.96,NNE,32,8.0,12.0,83,0.00,,,0.00,WUHU216DAVISVP2,2013-01-05 23:18:00,
2013-01-05 18:23:00,31.9,27.9,29.95,East,82,4.0,11.0,85,0.00,,,0.00,WUHU216DAVISVP2,2013-01-05 23:23:00,
2013-01-05 18:28:00,31.7,28.2,29.95,NE,53,10.0,11.0,87,0.00,,,0.00,WUHU216DAVISVP2,2013-01-05 23:28:00,
2013-01-05 18:32:00,31.4,28.2,29.95,NE,44,4.0,11.0,88,0.00,,,0.00,WUHU216DAVISVP2,2013-01-05 23:32:00,
2013-01-05 18:37:00,31.2,28.3,29.95,ENE,58,5.0,10.0,89,0.00,,,0.00,WUHU216DAVISVP2,2013-01-05 23:37:00,
2013-01-05 18:42:00,31.2,28.6,29.95,ENE,57,5.0,10.0,90,0.00,,,0.00,WUHU216DAVISVP2,2013-01-05 23:42:00,
2013-01-05 18:47:00,31.2,28.6,29.95,NE,37,3.0,10.0,90,0.00,,,0.00,WUHU216DAVISVP2,2013-01-05 23:47:00,
2013-01-05 18:53:00,31.1,28.7,29.95,NE,50,3.0,11.0,91,0.00,,,0.00,WUHU216DAVISVP2,2013-01-05 23:53:00,
2013-01-05 18:58:00,31.1,29.0,29.95,NE,44,6.0,11.0,92,0.00,,,0.00,WUHU216DAVISVP2,2013-01-05 23:58:00,
2013-01-05 19:03:00,31.1,29.3,29.95,ENE,58,4.0,10.0,93,0.00,,,0.00,WUHU216DAVISVP2,2013-01-06 00:03:00,
2013-01-05 19:08:00,31.2,29.4,29.95,ENE,58,5.0,9.0,93,0.00,,,0.00,WUHU216DAVISVP2,2013-01-06 00:08:00,
2013-01-05 19:13:00,31.2,29.6,29.95,NNE,27,6.0,9.0,94,0.00,,,0.00,WUHU216DAVISVP2,2013-01-06 00:13:00,
2013-01-05 19:18:00,31.2,29.6,29.95,NNE,26,3.0,11.0,94,0.00,,,0.00,WUHU216DAVISVP2,2013-01-06 00:18:00,
2013-01-05 19:23:00,31.3,29.7,29.95,NE,46,5.0,11.0,94,0.00,,,0.00,WUHU216DAVISVP2,2013-01-06 00:23:00,
2013-01-05 19:28:00,31.4,30.1,29.95,East,83,0.0,11.0,95,0.00,,,0.00,WUHU216DAVISVP2,2013-01-06 00:28:00,
2013-01-05 19:33:00,31.4,30.1,29.95,NE,48,2.0,10.0,95,0.00,,,0.00,WUHU216DAVISVP2,2013-01-06 00:33:00,
2013-01-05 19:38:00,31.5,30.2,29.95,NE,34,6.0,10.0,95,0.00,,,0.00,WUHU216DAVISVP2,2013-01-06 00:38:00,
2013-01-05 19:43:00,31.5,30.2,29.95,North,8,2.0,9.0,95,0.00,,,0.00,WUHU216DAVISVP2,2013-01-06 00:43:00,
2013-01-05 19:48:00,31.6,30.3,29.94,NE,50,3.0,11.0,95,0.00,,,0.00,WUHU216DAVISVP2,2013-01-06 00:48:00,
2013-01-05 19:53:00,31.6,30.3,29.94,NE,51,4.0,11.0,95,0.00,,,0.00,WUHU216DAVISVP2,2013-01-06 00:53:00,
2013-01-05 19:58:00,31.6,30.3,29.94,NE,36,7.0,9.0,95,0.00,,,0.00,WUHU216DAVISVP2,2013-01-06 00:58:00,
2013-01-05 20:03:00,31.7,30.7,29.94,NE,53,7.0,11.0,96,0.00,,,0.00,WUHU216DAVISVP2,2013-01-06 01:03:00,
2013-01-05 20:08:00,31.7,30.7,29.94,NE,51,8.0,11.0,96,0.00,,,0.00,WUHU216DAVISVP2,2013-01-06 01:08:00,
2013-01-05 20:13:00,31.6,30.6,29.94,ENE,76,0.0,11.0,96,0.00,,,0.00,WUHU216DAVISVP2,2013-01-06 01:13:00,
2013-01-05 20:18:00,31.6,30.6,29.94,NNE,25,6.0,10.0,96,0.00,,,0.00,WUHU216DAVISVP2,2013-01-06 01:18:00,
2013-01-05 20:23:00,31.6,30.6,29.94,North,351,2.0,10.0,96,0.00,,,0.00,WUHU216DAVISVP2,2013-01-06 01:23:00,
2013-01-05 20:28:00,31.6,30.6,29.93,NE,43,5.0,9.0,96,0.00,,,0.00,WUHU216DAVISVP2,2013-01-06 01:28:00,
2013-01-05 20:33:00,31.5,30.5,29.93,NNE,21,3.0,9.0,96,0.00,,,0.00,WUHU216DAVISVP2,2013-01-06 01:33:00,
2013-01-05 20:38:00,31.5,30.7,29.93,NNE,13,1.0,9.0,97,0.00,,,0.00,WUHU216DAVISVP2,2013-01-06 01:38:00,
2013-01-05 20:43:00,31.5,30.7,29.93,NE,51,6.0,9.0,97,0.00,,,0.00,WUHU216DAVISVP2,2013-01-06 01:43:00,
2013-01-05 20:48:00,31.4,30.6,29.92,NE,54,6.0,9.0,97,0.00,,,0.00,WUHU216DAVISVP2,2013-01-06 01:48:00,
2013-01-05 20:53:00,31.4,30.6,29.92,NE,51,5.0,10.0,97,0.00,,,0.00,WUHU216DAVISVP2,2013-01-06 01:53:00,
2013-01-05 20:58:00,31.3,30.5,29.92,NE,40,2.0,10.0,97,0.00,,,0.00,WUHU216DAVISVP2,2013-01-06 01:58:00,
2013-01-05 21:03:00,31.3,30.5,29.92,NNW,336,3.0,12.0,97,0.00,,,0.00,WUHU216DAVISVP2,2013-01-06 02:03:00,
2013-01-05 21:08:00,31.2,30.4,29.92,NNE,20,8.0,14.0,97,0.00,,,0.00,WUHU216DAVISVP2,2013-01-06 02:08:00,
2013-01-05 21:13:00,31.2,30.4,29.92,NNE,29,5.0,14.0,97,0.00,,,0.00,WUHU216DAVISVP2,2013-01-06 02:13:00,
2013-01-05 21:18:00,31.1,30.3,29.92,NE,54,9.0,13.0,97,0.00,,,0.00,WUHU216DAVISVP2,2013-01-06 02:18:00,
2013-01-05 21:23:00,31.2,30.4,29.91,North,1,7.0,13.0,97,0.00,,,0.00,WUHU216DAVISVP2,2013-01-06 02:23:00,
2013-01-05 21:28:00,31.2,30.4,29.91,NE,46,7.0,13.0,97,0.00,,,0.00,WUHU216DAVISVP2,2013-01-06 02:28:00,
2013-01-05 21:33:00,31.2,30.4,29.91,NNW,337,2.0,12.0,97,0.00,,,0.00,WUHU216DAVISVP2,2013-01-06 02:33:00,
2013-01-05 21:38:00,31.2,30.4,29.91,NNE,20,7.0,12.0,97,0.00,,,0.00,WUHU216DAVISVP2,2013-01-06 02:38:00,
2013-01-05 21:43:00,31.3,30.5,29.91,NNW,337,5.0,11.0,97,0.00,,,0.00,WUHU216DAVISVP2,2013-01-06 02:43:00,
2013-01-05 21:48:00,31.3,30.5,29.91,NE,53,3.0,11.0,97,0.00,,,0.00,WUHU216DAVISVP2,2013-01-06 02:48:00,
2013-01-05 21:53:00,31.3,30.5,29.91,NNE,29,3.0,10.0,97,0.00,,,0.00,WUHU216DAVISVP2,2013-01-06 02:53:00,
2013-01-05 21:58:00,31.4,30.6,29.91,NW,316,3.0,10.0,97,0.00,,,0.00,WUHU216DAVISVP2,2013-01-06 02:58:00,
2013-01-05 22:03:00,31.4,30.6,29.91,NNW,342,7.0,10.0,97,0.00,,,0.00,WUHU216DAVISVP2,2013-01-06 03:03:00,
2013-01-05 22:08:00,31.4,30.6,29.91,NNE,25,3.0,10.0,97,0.00,,,0.00,WUHU216DAVISVP2,2013-01-06 03:08:00,
2013-01-05 22:13:00,31.4,30.6,29.90,ENE,61,8.0,12.0,97,0.00,,,0.00,WUHU216DAVISVP2,2013-01-06 03:13:00,
2013-01-05 22:18:00,31.4,30.6,29.90,NE,39,6.0,14.0,97,0.00,,,0.00,WUHU216DAVISVP2,2013-01-06 03:18:00,
2013-01-05 22:23:00,31.4,30.6,29.90,NW,312,4.0,14.0,97,0.00,,,0.00,WUHU216DAVISVP2,2013-01-06 03:23:00,
2013-01-05 22:28:00,31.4,30.6,29.90,ENE,66,4.0,12.0,97,0.00,,,0.00,WUHU216DAVISVP2,2013-01-06 03:28:00,
2013-01-05 22:33:00,31.4,30.9,29.90,ENE,76,6.0,12.0,98,0.00,,,0.00,WUHU216DAVISVP2,2013-01-06 03:33:00,
2013-01-05 22:38:00,31.5,31.0,29.90,NNE,32,8.0,11.0,98,0.00,,,0.00,WUHU216DAVISVP2,2013-01-06 03:38:00,
2013-01-05 22:43:00,31.5,31.0,29.90,NE,46,8.0,12.0,98,0.00,,,0.00,WUHU216DAVISVP2,2013-01-06 03:43:00,
2013-01-05 22:48:00,31.5,31.0,29.90,NE,51,10.0,13.0,98,0.00,,,0.00,WUHU216DAVISVP2,2013-01-06 03:48:00,
2013-01-05 22:53:00,31.5,31.0,29.90,NE,50,7.0,14.0,98,0.00,,,0.00,WUHU216DAVISVP2,2013-01-06 03:53:00,
2013-01-05 22:58:00,31.6,31.1,29.90,ENE,57,7.0,14.0,98,0.00,,,0.00,WUHU216DAVISVP2,2013-01-06 03:58:00,
2013-01-05 23:03:00,31.6,31.1,29.90,NE,53,11.0,12.0,98,0.00,,,0.00,WUHU216DAVISVP2,2013-01-06 04:03:00,
2013-01-05 23:08:00,31.6,31.1,29.90,NNE,23,8.0,14.0,98,0.00,,,0.00,WUHU216DAVISVP2,2013-01-06 04:08:00,
2013-01-05 23:13:00,31.6,31.1,29.90,ENE,63,7.0,14.0,98,0.00,,,0.00,WUHU216DAVISVP2,2013-01-06 04:13:00,
2013-01-05 23:18:00,31.6,31.1,29.89,ENE,71,9.0,15.0,98,0.00,,,0.00,WUHU216DAVISVP2,2013-01-06 04:18:00,
2013-01-05 23:23:00,31.6,31.1,29.89,NNE,13,7.0,15.0,98,0.00,,,0.00,WUHU216DAVISVP2,2013-01-06 04:23:00,
2013-01-05 23:28:00,31.6,31.1,29.89,ENE,67,3.0,14.0,98,0.00,,,0.00,WUHU216DAVISVP2,2013-01-06 04:28:00,
2013-01-05 23:33:00,31.6,31.1,29.89,ENE,61,9.0,14.0,98,0.00,,,0.00,WUHU216DAVISVP2,2013-01-06 04:33:00,
2013-01-05 23:38:00,31.6,31.1,29.89,ENE,64,9.0,13.0,98,0.00,,,0.00,WUHU216DAVISVP2,2013-01-06 04:38:00,
2013-01-05 23:43:00,31.6,31.1,29.88,NE,43,6.0,15.0,98,0.00,,,0.00,WUHU216DAVISVP2,2013-01-06 04:43:00,
2013-01-05 23:48:00,31.6,31.1,29.88,ENE,67,4.0,15.0,98,0.00,,,0.00,WUHU216DAVISVP2,2013-01-06 04:48:00,
2013-01-05 23:53:00,31.6,31.1,29.88,North,351,6.0,13.0,98,0.00,,,0.00,WUHU216DAVISVP2,2013-01-06 04:53:00,
2013-01-05 23:58:00,31.6,31.1,29.88,NE,37,6.0,14.0,98,0.00,,,0.00,WUHU216DAVISVP2,2013-01-06 04:58:00,